星链-5029 (STARLINK-5029 )

导读

STARLINK-5029是美国太空探索技术公司SpaceX星链计划中的一颗卫星,于2022年9月24日发射入轨。它属于星链低轨互联网星座的组成部分,主要用于提供全球范围的高速卫星互联网服务,尤其为偏远地区、海上和航空等场景带来网络连接,该卫星也是美国大规模部署星链星座进程中的一员。

Basic Information
目录编号:
53887
目录名称:
STARLINK-5029
国际标识:
2022-119B
轨道中心:
EARTH
卫星名称:
星链-5029
卫星全名:
星链-5029 (STARLINK-5029 )
卫星状态:
在轨 (已飞行1448 天)
发射日期:
2022-09-24 UTC
国别 :
美国 (US)
星等 :
--
Orbit Information
数据来源 国际轨道数据
星历时间: 2026-09-09T22:50:09+0800
1天前
查看轨道信息
半长轴: 6848.892km
偏心率: 0.0001347
轨道倾角: 53.162°
近地点辐角 94.001°
升交点赤经 213.484°
平近点角 266.114°
近地点: 469.832km
远地点: 471.678km
周期: 94.013分钟
每日圈数: 15.316953
Detailed Information
固有亮度:
5
最大亮度:
2.5
卫星平台:
Starlink v1.5
覆盖范围:
全球
运营商:
太空探索技术公司
运营商所在国:
美国
制造商(研发单位):
太空探索技术公司
制造商所在国:
美国
使用方式:
暂无
Satellite Introduction
星链(Starlink)计划是由太空探索技术公司(SpaceX)提出的一个巨型低轨卫星互联网星座项目,计划在2019年至2024年间在太空搭建由约1.2万颗卫星组成的“星链”网络,其中1584颗将部署在地球上空550千米处的近地轨道,并从2020年开始工作。该卫星仍在工作。
2D Orbit Map
3D Orbit Map
Orbit Altitude Analysis Chart
Orbit Inclination Analysis Chart
Orbit Comprehensive Analysis Chart
View Comprehensive Chart
Conjunction Data List
Event ID Objects TCA Miss Dist (km) Collision Risk Probability Collision Risk Index (CRI) Action
CDM_260911-224705-388706-891121
2026-09-11T
22:47:00+0000
2.360 km
极远距离
1.786829E-6 低风险 0.4
CDM_260911-212005-388706-190124
OBJECT H (61901)
2026-09-11T
21:20:33+0000
2.702 km
极远距离
1.467923E-6 低风险 0.38
CDM_260913-030604-464105-388721
2026-09-13T
03:06:48+0000
2.769 km
极远距离
1.428198E-6 低风险 0.38
CDM_260911-231905-388706-838321
2026-09-11T
23:19:26+0000
2.955 km
极远距离
1.358025E-6 低风险 0.38
Miss Distance Evolution Trend with All Objects
Collision Probability Evolution Trend with All Objects